EW1134 Weather Reports


Display with metric or nautical units.
time (UTC)temp
F
wind
direction
speed
MPH
gust
MPH
rain 1hr
in
rain 24hr
in
rain mn
in
humidity
%
barometer
mb
20260831072003 84 21 2.0 6.0 0.00 0.00 0.00 42 1016.0
20260831071503 83 46 2.0 5.0 0.00 0.00 0.00 43 1015.9
20260831071003 83 62 2.0 5.0 0.00 0.00 0.00 44 1016.1
20260831070502 83 75 1.0 4.0 0.00 0.00 0.00 45 1015.9
20260831065003 81 93 1.0 4.0 0.00 0.00 0.00 46 1016.1
20260831064503 81 56 2.0 4.0 0.00 0.00 0.00 45 1016.2
20260831064003 81 60 2.0 4.0 0.00 0.00 0.00 46 1016.2
20260831063502 81 82 2.0 6.0 0.00 0.00 0.00 46 1016.3
20260831063003 80 71 2.0 6.0 0.00 0.00 0.00 46 1016.3
20260831062503 80 129 1.0 4.0 0.00 0.00 0.00 47 1016.4
20260831062003 79 202 0.0 3.0 0.00 0.00 0.00 46 1016.3
20260831061504 78 225 1.0 3.0 0.00 0.00 0.00 46 1016.3
20260831061003 78 225 1.0 3.0 0.00 0.00 0.00 46 1016.3
20260831060503 78 222 0.0 3.0 0.00 0.00 0.00 47 1016.2
20260831060004 77 95 0.0 3.0 0.00 0.00 0.00 48 1016.3
20260831055503 77 33 0.0 3.0 0.00 0.00 0.00 48 1016.1
20260831055003 76 19 0.0 3.0 0.00 0.00 0.00 49 1016.1
20260831054504 75 50 0.0 3.0 0.00 0.00 0.00 50 1016.3
20260831054003 74 53 1.0 4.0 0.00 0.00 0.00 50 1016.2
20260831053503 73 58 1.0 4.0 0.00 0.00 0.00 51 1016.1
20260831053004 73 92 0.0 3.0 0.00 0.00 0.00 52 1016.3
20260831052503 72 69 0.0 2.0 0.00 0.00 0.00 53 1016.3
20260831052003 71 92 0.0 2.0 0.00 0.00 0.00 54 1016.3
20260831051503 70 147 0.0 2.0 0.00 0.00 0.00 55 1016.3
20260831051003 70 165 0.0 2.0 0.00 0.00 0.00 56 1016.2
20260831050502 70 174 0.0 2.0 0.00 0.00 0.00 56 1016.3
20260831050004 69 216 0.0 3.0 0.00 0.00 0.00 57 1016.3
20260831045503 69 222 1.0 4.0 0.00 0.00 0.00 57 1016.2
20260831045002 69 227 1.0 4.0 0.00 0.00 0.00 57 1016.3
20260831044503 69 224 1.0 4.0 0.00 0.00 0.00 57 1016.2
20260831044003 68 222 2.0 5.0 0.00 0.00 0.00 57 1016.2
20260831043503 68 229 1.0 5.0 0.00 0.00 0.00 57 1016.2
20260831043004 68 237 1.0 5.0 0.00 0.00 0.00 57 1016.0
20260831042503 68 239 1.0 4.0 0.00 0.00 0.00 58 1016.0
20260831041504 68 255 0.0 3.0 0.00 0.00 0.00 58 1015.9
20260831040003 68 203 0.0 2.0 0.00 0.00 0.00 57 1015.8
20260831035503 68 205 1.0 4.0 0.00 0.00 0.00 57 1016.0
20260831035003 68 215 1.0 4.0 0.00 0.00 0.00 57 1016.1
20260831034503 68 235 1.0 4.0 0.00 0.00 0.00 57 1015.9
20260831033502 68 223 1.0 4.0 0.00 0.00 0.00 57 1016.0
20260831033004 68 224 1.0 4.0 0.00 0.00 0.00 57 1015.9
20260831032503 68 225 1.0 3.0 0.00 0.00 0.00 57 1016.0
20260831032003 68 217 0.0 3.0 0.00 0.00 0.00 57 1016.0
20260831031503 68 210 0.0 3.0 0.00 0.00 0.00 57 1015.8
20260831031003 69 250 0.0 3.0 0.00 0.00 0.00 57 1015.8
20260831030503 69 234 0.0 3.0 0.00 0.00 0.00 57 1015.8
20260831025503 69 181 0.0 2.0 0.00 0.00 0.00 56 1015.8
20260831024504 69 220 0.0 2.0 0.00 0.00 0.00 56 1016.0
20260831024003 69 235 0.0 4.0 0.00 0.00 0.00 56 1015.8
20260831023503 69 239 0.0 4.0 0.00 0.00 0.00 56 1015.8
20260831023004 69 240 1.0 4.0 0.00 0.00 0.00 56 1015.7
20260831022003 69 224 2.0 6.0 0.00 0.00 0.00 56 1015.7
20260831021504 69 222 2.0 6.0 0.00 0.00 0.00 56 1015.7
20260831021002 69 237 2.0 6.0 0.00 0.00 0.00 56 1015.6
20260831020503 69 255 1.0 6.0 0.00 0.00 0.00 56 1015.7
20260831020004 69 248 1.0 4.0 0.00 0.00 0.00 56 1015.7
20260831015003 69 244 0.0 4.0 0.00 0.00 0.00 56 1015.6
20260831014503 69 247 0.0 4.0 0.00 0.00 0.00 56 1015.6
20260831014003 69 230 0.0 3.0 0.00 0.00 0.00 55 1015.5
20260831013503 69 240 0.0 3.0 0.00 0.00 0.00 55 1015.7
20260831013003 69 238 0.0 3.0 0.00 0.00 0.00 55 1015.8
20260831012503 69 228 0.0 3.0 0.00 0.00 0.00 54 1015.8
20260831012003 69 228 1.0 4.0 0.00 0.00 0.00 54 1015.8
20260831011504 70 225 1.0 4.0 0.00 0.00 0.00 54 1015.7
20260831011003 70 224 2.0 4.0 0.00 0.00 0.00 54 1015.7
20260831010502 70 224 1.0 4.0 0.00 0.00 0.00 54 1015.8
20260831010004 70 225 0.0 3.0 0.00 0.00 0.00 55 1015.8
20260831005004 70 228 0.0 2.0 0.00 0.00 0.00 54 1015.8
20260831004003 70 260 0.0 2.0 0.00 0.00 0.00 54 1016.0
20260831003502 70 145 0.0 1.0 0.00 0.00 0.00 54 1015.9
20260831003004 70 135 0.0 1.0 0.00 0.00 0.00 53 1015.9
20260831002503 70 225 0.0 1.0 0.00 0.00 0.00 53 1016.0
20260831002002 70 225 0.0 2.0 0.00 0.00 0.00 53 1015.8
20260831001503 70 225 0.0 3.0 0.00 0.00 0.00 53 1015.8
20260831001003 71 225 0.0 3.0 0.00 0.00 0.00 53 1015.8
20260831000503 71 181 0.0 2.0 0.00 0.00 0.00 53 1015.8
20260831000004 71 192 0.0 2.0 0.00 0.00 0.00 52 1015.7
20260830235003 71 242 0.0 2.0 0.00 0.00 0.00 52 1015.8
20260830234504 71 244 0.0 2.0 0.00 0.00 0.00 52 1015.8
20260830233503 71 202 1.0 4.0 0.00 0.00 0.00 52 1015.9
20260830233003 71 226 2.0 4.0 0.00 0.00 0.00 52 1015.9
20260830232503 71 230 1.0 4.0 0.00 0.00 0.00 52 1015.9
20260830232003 71 245 1.0 3.0 0.00 0.00 0.00 52 1016.0
20260830231503 71 237 1.0 3.0 0.00 0.00 0.00 52 1016.0
20260830230503 71 170 0.0 2.0 0.00 0.00 0.00 51 1015.9
20260830230003 72 197 0.0 3.0 0.00 0.00 0.00 51 1016.0
20260830225002 72 225 0.0 3.0 0.00 0.00 0.00 50 1015.9
20260830224503 72 236 1.0 3.0 0.00 0.00 0.00 50 1016.0
20260830224003 72 236 1.0 4.0 0.00 0.00 0.00 50 1016.0
20260830223502 72 229 1.0 4.0 0.00 0.00 0.00 50 1016.0
20260830223004 72 221 0.0 3.0 0.00 0.00 0.00 49 1016.1
20260830222503 73 221 0.0 3.0 0.00 0.00 0.00 49 1016.0
20260830222002 73 243 0.0 4.0 0.00 0.00 0.00 49 1016.0
20260830221503 73 244 1.0 4.0 0.00 0.00 0.00 49 1016.1
20260830221003 73 234 1.0 4.0 0.00 0.00 0.00 49 1016.1
20260830220503 73 225 1.0 3.0 0.00 0.00 0.00 49 1016.3
20260830220003 73 213 0.0 3.0 0.00 0.00 0.00 49 1016.3
20260830215503 73 222 0.0 3.0 0.00 0.00 0.00 48 1016.3
20260830215003 73 225 0.0 3.0 0.00 0.00 0.00 48 1016.3
20260830214503 73 225 0.0 2.0 0.00 0.00 0.00 48 1016.3
20260830214003 73 225 0.0 2.0 0.00 0.00 0.00 48 1016.2
20260830213004 74 224 0.0 3.0 0.00 0.00 0.00 47 1016.1
20260830212503 74 208 0.0 3.0 0.00 0.00 0.00 47 1016.1
20260830212003 74 192 1.0 3.0 0.00 0.00 0.00 47 1016.2
20260830211503 74 201 0.0 4.0 0.00 0.00 0.00 47 1016.2
20260830211003 74 227 1.0 5.0 0.00 0.00 0.00 46 1016.1
20260830210503 74 230 2.0 5.0 0.00 0.00 0.00 46 1016.1
20260830210004 75 224 2.0 5.0 0.00 0.00 0.00 46 1016.0
20260830205503 75 228 2.0 4.0 0.00 0.00 0.00 46 1015.9
20260830205003 75 220 2.0 4.0 0.00 0.00 0.00 46 1016.1
20260830204504 75 210 2.0 4.0 0.00 0.00 0.00 46 1016.1
20260830204003 75 214 1.0 4.0 0.00 0.00 0.00 46 1016.0
20260830203003 75 225 2.0 4.0 0.00 0.00 0.00 46 1016.1
20260830202502 75 242 2.0 4.0 0.00 0.00 0.00 46 1015.8
20260830202003 75 257 2.0 4.0 0.00 0.00 0.00 46 1016.0
20260830194503 82 135 4.0 7.0 0.00 0.00 0.00 36 1016.1
20260830194003 82 135 4.0 7.0 0.00 0.00 0.00 36 1016.0
20260830193503 82 135 4.0 7.0 0.00 0.00 0.00 36 1016.0
20260830193003 82 135 4.0 7.0 0.00 0.00 0.00 36 1016.2
20260830192502 82 135 4.0 7.0 0.00 0.00 0.00 36 1016.0
20260830191504 82 135 4.0 7.0 0.00 0.00 0.00 36 1016.1
20260830191003 82 135 4.0 7.0 0.00 0.00 0.00 36 1016.2
20260830190502 82 135 4.0 7.0 0.00 0.00 0.00 36 1015.9
20260830190003 82 135 4.0 7.0 0.00 0.00 0.00 36 1016.0
20260830185503 82 135 4.0 7.0 0.00 0.00 0.00 36 1015.9
20260830185003 82 135 4.0 7.0 0.00 0.00 0.00 36 1015.9
20260830184504 82 135 4.0 7.0 0.00 0.00 0.00 36 1015.9
20260830184002 82 135 4.0 7.0 0.00 0.00 0.00 36 1015.8
20260830183503 82 135 4.0 7.0 0.00 0.00 0.00 36 1015.8
20260830182503 82 135 4.0 7.0 0.00 0.00 0.00 36 1015.6
20260830181503 82 135 4.0 7.0 0.00 0.00 0.00 36 1015.5
20260830181002 82 135 4.0 7.0 0.00 0.00 0.00 36 1015.5
20260830180503 82 135 4.0 7.0 0.00 0.00 0.00 36 1015.4
20260830180004 82 135 4.0 7.0 0.00 0.00 0.00 36 1015.3
20260830175503 82 135 4.0 7.0 0.00 0.00 0.00 36 1015.2
20260830175002 82 135 4.0 7.0 0.00 0.00 0.00 36 1015.1
20260830174003 82 135 4.0 7.0 0.00 0.00 0.00 36 1015.2
20260830173503 82 135 4.0 7.0 0.00 0.00 0.00 36 1014.9
20260830173003 82 121 3.0 7.0 0.00 0.00 0.00 36 1014.9
20260830172503 82 86 3.0 7.0 0.00 0.00 0.00 36 1014.9
20260830172002 82 66 3.0 7.0 0.00 0.00 0.00 36 1015.0
20260830171504 82 69 3.0 6.0 0.00 0.00 0.00 36 1014.9
20260830171003 82 82 3.0 7.0 0.00 0.00 0.00 36 1014.9
20260830170502 82 90 3.0 7.0 0.00 0.00 0.00 36 1014.9
20260830170003 83 84 2.0 6.0 0.00 0.00 0.00 36 1014.7
20260830165503 83 81 3.0 8.0 0.00 0.00 0.00 36 1014.8
20260830165003 83 84 4.0 8.0 0.00 0.00 0.00 36 1014.7
20260830164503 83 85 4.0 9.0 0.00 0.00 0.00 36 1014.8
20260830164003 83 75 4.0 9.0 0.00 0.00 0.00 35 1014.7
20260830163003 84 70 4.0 9.0 0.00 0.00 0.00 35 1014.7
20260830162502 84 61 5.0 13.0 0.00 0.00 0.00 35 1014.6
20260830162003 84 71 5.0 13.0 0.00 0.00 0.00 35 1014.7
20260830161503 84 56 5.0 13.0 0.00 0.00 0.00 35 1014.7
20260830161002 85 60 6.0 13.0 0.00 0.00 0.00 35 1014.8
20260830160503 85 77 7.0 14.0 0.00 0.00 0.00 34 1014.6
20260830160004 85 78 6.0 14.0 0.00 0.00 0.00 34 1014.8
20260830155503 86 76 6.0 11.0 0.00 0.00 0.00 33 1014.9
20260830155003 86 90 5.0 11.0 0.00 0.00 0.00 33 1014.8
20260830154003 86 78 5.0 13.0 0.00 0.00 0.00 32 1014.7
20260830153503 86 72 6.0 13.0 0.00 0.00 0.00 32 1014.7
20260830153003 86 69 7.0 13.0 0.00 0.00 0.00 32 1014.6
20260830152502 86 71 6.0 13.0 0.00 0.00 0.00 32 1014.4
20260830152003 87 62 7.0 16.0 0.00 0.00 0.00 32 1014.4
20260830151503 87 49 8.0 16.0 0.00 0.00 0.00 31 1014.4
20260830151002 87 48 8.0 14.0 0.00 0.00 0.00 31 1014.4
20260830150503 88 46 7.0 14.0 0.00 0.00 0.00 31 1014.3
20260830145503 88 72 6.0 12.0 0.00 0.00 0.00 31 1014.4
20260830145003 88 92 5.0 12.0 0.00 0.00 0.00 31 1014.4
20260830144003 88 45 5.0 9.0 0.00 0.00 0.00 31 1014.4
20260830143503 88 37 5.0 9.0 0.00 0.00 0.00 31 1014.4
20260830143003 89 56 5.0 12.0 0.00 0.00 0.00 31 1014.7
20260830142502 89 72 5.0 12.0 0.00 0.00 0.00 31 1014.5
20260830142003 89 80 5.0 12.0 0.00 0.00 0.00 31 1014.6
20260830141002 89 87 5.0 11.0 0.00 0.00 0.00 31 1014.5
20260830140503 89 64 5.0 10.0 0.00 0.00 0.00 31 1014.6
20260830135503 88 62 6.0 12.0 0.00 0.00 0.00 31 1014.7
20260830135002 88 65 6.0 12.0 0.00 0.00 0.00 31 1014.8
20260830134003 87 51 6.0 13.0 0.00 0.00 0.00 32 1014.7
20260830133503 86 58 7.0 16.0 0.00 0.00 0.00 32 1014.8
20260830133003 86 66 6.0 16.0 0.00 0.00 0.00 32 1014.8
20260830132503 86 61 6.0 13.0 0.00 0.00 0.00 33 1014.8
20260830132003 85 71 8.0 16.0 0.00 0.00 0.00 34 1014.8
20260830131503 85 83 9.0 16.0 0.00 0.00 0.00 35 1014.8
20260830131003 86 73 9.0 16.0 0.00 0.00 0.00 34 1014.9
20260830122007 91 1 2.0 10.0 0.00 0.00 0.00 21 1014.9
20260830121504 91 1 2.0 10.0 0.00 0.00 0.00 21 1014.8
20260830120504 91 1 7.0 11.0 0.00 0.00 0.00 20 1014.8
20260830114506 89 1 4.0 7.0 0.00 0.00 0.00 22 1015.2
20260830114006 89 1 4.0 7.0 0.00 0.00 0.00 22 1015.0
20260830113503 89 1 4.0 7.0 0.00 0.00 0.00 22 1015.1
20260830113007 89 1 4.0 7.0 0.00 0.00 0.00 22 1015.0
20260830112504 89 1 4.0 7.0 0.00 0.00 0.00 22 1015.2
20260830112006 89 1 4.0 7.0 0.00 0.00 0.00 22 1015.2
20260830111505 89 1 4.0 7.0 0.00 0.00 0.00 22 1014.9
20260830111016 89 1 4.0 7.0 0.00 0.00 0.00 22 1015.3
20260830110005 89 1 5.0 10.0 0.00 0.00 0.00 22 1015.5
20260830105505 90 1 5.0 96.0 0.00 0.00 0.00 21 1015.4
20260830105005 90 1 5.0 96.0 0.00 0.00 0.00 21 1015.6
20260830103506 89 45 5.0 9.0 0.00 0.00 0.00 21 1015.5
20260830103006 89 45 4.0 9.0 0.00 0.00 0.00 21 1015.6
20260830102505 90 45 3.0 8.0 0.00 0.00 0.00 20 1015.8
20260830102005 90 45 3.0 8.0 0.00 0.00 0.00 20 1015.7
20260830100006 89 80 1.0 6.0 0.00 0.00 0.00 21 1015.9
20260830095507 89 90 3.0 6.0 0.00 0.00 0.00 22 1015.6
20260830094507 89 36 4.0 7.0 0.00 0.00 0.00 24 1016.0
20260830094005 89 36 4.0 7.0 0.00 0.00 0.00 24 1015.9
20260830093506 89 36 4.0 7.0 0.00 0.00 0.00 24 1015.9
20260830093005 89 26 3.0 7.0 0.00 0.00 0.00 24 1016.0
20260830092006 89 17 2.0 9.0 0.00 0.00 0.00 24 1016.0
20260830091506 87 135 1.0 2.0 0.00 0.00 0.00 24 1015.8
20260830091006 87 135 0.0 2.0 0.00 0.00 0.00 24 1016.1
20260830090506 86 135 0.0 2.0 0.00 0.00 0.00 27 1016.1
20260830085503 85 135 0.0 2.0 0.00 0.00 0.00 27 1016.3
20260830084506 85 258 0.0 5.0 0.00 0.00 0.00 30 1016.3
20260830084005 85 258 0.0 5.0 0.00 0.00 0.00 30 1016.4
20260830083006 85 258 0.0 5.0 0.00 0.00 0.00 30 1016.3
20260830082503 85 62 1.0 5.0 0.00 0.00 0.00 30 1016.4
20260830082003 85 78 2.0 6.0 0.00 0.00 0.00 30 1016.3
20260830081503 84 24 3.0 6.0 0.00 0.00 0.00 31 1016.3
20260830080503 84 56 2.0 6.0 0.00 0.00 0.00 31 1016.2
20260830080003 84 53 2.0 9.0 0.00 0.00 0.00 32 1016.3
20260830075502 84 23 4.0 9.0 0.00 0.00 0.00 33 1016.4
20260830075003 83 23 4.0 7.0 0.00 0.00 0.00 35 1016.1
20260830074504 83 55 3.0 7.0 0.00 0.00 0.00 36 1016.3
20260830074003 83 61 3.0 8.0 0.00 0.00 0.00 36 1016.3
20260830073503 83 51 3.0 8.0 0.00 0.00 0.00 36 1016.4
20260830073003 83 38 3.0 7.0 0.00 0.00 0.00 36 1016.5